When you browse on this site, cookies collect data to enhance your experience and personalize the content and advertising you see.
Visit our Privacy Policy to learn more. By continuing to use the site, you agree to this use of cookies and data.
  • In Sweden
  • List of Countries
  • For 7 days
  • Water Temperature
  • Weather Map
  • Weather Widgets
  • user-avatar
    Login

    Hourly Weather Inhambane

    Today, 20 February, Thursday

    Time Temperature Precipitation Wind Pressure Humidity
    00:00 +12°C° 0 mm 3 mps 725 mmHg 40%
    01:00 +11°C° 0 mm 3 mps 725 mmHg 43%
    02:00 +11°C° 0 mm 3 mps 724 mmHg 45%
    03:00 +11°C° 0 mm 3 mps 724 mmHg 46%
    04:00 +10°C° 0 mm 2 mps 724 mmHg 48%
    05:00 +10°C° 0 mm 2 mps 725 mmHg 49%
    06:00 +12°C° 0 mm 2 mps 725 mmHg 45%
    07:00 +14°C° 0 mm 2 mps 725 mmHg 40%
    08:00 +15°C° 0 mm 2 mps 726 mmHg 35%
    09:00 +17°C° 0 mm 2 mps 726 mmHg 31%
    10:00 +19°C° 0 mm 2 mps 726 mmHg 27%
    11:00 +20°C° 0 mm 2 mps 726 mmHg 23%
    12:00 +21°C° 0 mm 3 mps 726 mmHg 23%
    13:00 +22°C° 0 mm 4 mps 725 mmHg 23%
    14:00 +23°C° 0 mm 5 mps 724 mmHg 22%
    15:00 +21°C° 0 mm 5 mps 724 mmHg 30%
    16:00 +20°C° 0 mm 5 mps 724 mmHg 38%
    17:00 +19°C° 0 mm 6 mps 724 mmHg 46%
    18:00 +16°C° 0 mm 5 mps 724 mmHg 54%
    19:00 +16°C° 0 mm 3 mps 724 mmHg 62%
    20:00 +14°C° 0 mm 2 mps 724 mmHg 69%
    21:00 +14°C° 0 mm 2 mps 724 mmHg 74%
    22:00 +13°C° 0 mm 2 mps 724 mmHg 79%
    23:00 +12°C° 0 mm 1 mps 724 mmHg 83%

    Tomorrow, 21 February, Friday

    Time Temperature Precipitation Wind Pressure Humidity
    00:00 +12°C° 0 mm 1 mps 724 mmHg 82%
    01:00 +12°C° 0 mm 2 mps 723 mmHg 80%
    02:00 +12°C° 0 mm 2 mps 723 mmHg 78%
    03:00 +10°C° 0 mm 2 mps 723 mmHg 78%
    04:00 +10°C° 0 mm 2 mps 722 mmHg 78%
    05:00 +10°C° 0 mm 2 mps 722 mmHg 78%
    06:00 +13°C° 0 mm 2 mps 723 mmHg 67%
    07:00 +15°C° 0 mm 1 mps 724 mmHg 56%
    08:00 +16°C° 0 mm 1 mps 724 mmHg 45%
    15:00 +26°C° 0 mm 3 mps 723 mmHg 21%
    16:00 +24°C° 0 mm 3 mps 722 mmHg 27%
    17:00 +22°C° 0 mm 3 mps 722 mmHg 33%
    18:00 +20°C° 0 mm 2 mps 722 mmHg 41%
    19:00 +18°C° 0 mm 2 mps 723 mmHg 50%
    20:00 +15°C° 0 mm 1 mps 723 mmHg 58%
    21:00 +15°C° 0 mm 1 mps 723 mmHg 58%
    22:00 +15°C° 0 mm 1 mps 723 mmHg 58%
    23:00 +15°C° 0 mm 1 mps 723 mmHg 58%

    Day after tomorrow, 22 February, Saturday

    Time Temperature Precipitation Wind Pressure Humidity
    00:00 +14°C° 0 mm 1 mps 723 mmHg 54%
    01:00 +14°C° 0 mm 1 mps 723 mmHg 50%
    02:00 +14°C° 0 mm 1 mps 722 mmHg 47%
    03:00 +13°C° 0 mm 1 mps 722 mmHg 44%
    04:00 +13°C° 0 mm 2 mps 722 mmHg 41%
    05:00 +12°C° 0 mm 2 mps 722 mmHg 38%
    06:00 +14°C° 0 mm 2 mps 723 mmHg 34%
    07:00 +16°C° 0 mm 2 mps 724 mmHg 29%
    08:00 +18°C° 0 mm 2 mps 724 mmHg 25%
    09:00 +20°C° 0 mm 2 mps 725 mmHg 22%
    10:00 +23°C° 0 mm 2 mps 725 mmHg 18%
    11:00 +25°C° 0 mm 2 mps 725 mmHg 15%
    12:00 +26°C° 0 mm 3 mps 724 mmHg 16%
    13:00 +27°C° 0 mm 3 mps 724 mmHg 16%
    14:00 +27°C° 0 mm 3 mps 723 mmHg 16%
    15:00 +26°C° 0 mm 3 mps 723 mmHg 20%
    16:00 +25°C° 0 mm 4 mps 723 mmHg 24%
    17:00 +23°C° 0 mm 4 mps 723 mmHg 28%
    18:00 +20°C° 0 mm 3 mps 723 mmHg 42%
    19:00 +18°C° 0 mm 2 mps 724 mmHg 56%
    20:00 +15°C° 0 mm 2 mps 724 mmHg 70%
    21:00 +15°C° 0 mm 1 mps 724 mmHg 73%
    22:00 +14°C° 0 mm 1 mps 724 mmHg 77%
    23:00 +14°C° 0 mm 1 mps 724 mmHg 80%

    23 February, Sunday

    Time Temperature Precipitation Wind Pressure Humidity
    00:00 +14°C° 0 mm 1 mps 724 mmHg 80%
    01:00 +13°C° 0 mm 1 mps 724 mmHg 79%
    02:00 +13°C° 0 mm 1 mps 723 mmHg 79%
    03:00 +13°C° 0 mm 1 mps 723 mmHg 77%
    04:00 +12°C° 0 mm 1 mps 723 mmHg 75%
    05:00 +12°C° 0 mm 1 mps 723 mmHg 73%
    06:00 +13°C° 0 mm 1 mps 723 mmHg 66%
    07:00 +15°C° 0 mm 1 mps 724 mmHg 58%
    08:00 +16°C° 0 mm 1 mps 724 mmHg 51%
    09:00 +18°C° 0 mm 2 mps 724 mmHg 43%
    10:00 +20°C° 0 mm 2 mps 724 mmHg 36%
    11:00 +21°C° 0 mm 2 mps 724 mmHg 29%
    12:00 +23°C° 0 mm 2 mps 724 mmHg 25%
    13:00 +24°C° 0 mm 3 mps 723 mmHg 21%
    14:00 +25°C° 0 mm 3 mps 723 mmHg 18%
    15:00 +25°C° 0 mm 3 mps 723 mmHg 21%
    16:00 +23°C° 0 mm 4 mps 723 mmHg 24%
    17:00 +22°C° 0 mm 4 mps 722 mmHg 27%
    18:00 +19°C° 0 mm 3 mps 723 mmHg 33%
    19:00 +17°C° 0 mm 3 mps 723 mmHg 40%
    20:00 +15°C° 0 mm 2 mps 723 mmHg 46%
    21:00 +15°C° 0 mm 2 mps 723 mmHg 48%
    22:00 +14°C° 0 mm 2 mps 723 mmHg 51%
    23:00 +13°C° 0 mm 2 mps 723 mmHg 53%

    24 February, Monday

    Time Temperature Precipitation Wind Pressure Humidity
    00:00 +13°C° 0 mm 2 mps 723 mmHg 52%
    01:00 +13°C° 0 mm 2 mps 723 mmHg 51%
    02:00 +12°C° 0 mm 2 mps 723 mmHg 50%
    03:00 +12°C° 0 mm 2 mps 723 mmHg 51%
    04:00 +12°C° 0 mm 2 mps 722 mmHg 52%
    05:00 +10°C° 0 mm 2 mps 722 mmHg 52%
    06:00 +11°C° 0 mm 3 mps 723 mmHg 49%
    07:00 +12°C° 0 mm 3 mps 723 mmHg 45%
    08:00 +14°C° 0 mm 3 mps 724 mmHg 41%
    09:00 +15°C° 0 mm 4 mps 724 mmHg 35%
    10:00 +17°C° 0 mm 5 mps 724 mmHg 29%
    11:00 +19°C° 0 mm 6 mps 724 mmHg 23%
    12:00 +20°C° 0 mm 6 mps 723 mmHg 21%
    13:00 +21°C° 0 mm 6 mps 723 mmHg 18%
    14:00 +21°C° 0 mm 6 mps 722 mmHg 15%
    15:00 +21°C° 0 mm 7 mps 722 mmHg 16%
    16:00 +20°C° 0 mm 7 mps 722 mmHg 16%
    17:00 +18°C° 0 mm 7 mps 723 mmHg 17%
    18:00 +17°C° 0 mm 6 mps 723 mmHg 22%
    19:00 +15°C° 0 mm 5 mps 724 mmHg 26%
    20:00 +13°C° 0 mm 4 mps 724 mmHg 30%
    21:00 +12°C° 0 mm 4 mps 724 mmHg 37%
    22:00 +11°C° 0 mm 4 mps 724 mmHg 43%
    23:00 +10°C° 0 mm 4 mps 725 mmHg 49%

    25 February, Tuesday

    Time Temperature Precipitation Wind Pressure Humidity
    00:00 +10°C° 0 mm 4 mps 724 mmHg 53%
    01:00 +8°C° 0 mm 4 mps 724 mmHg 56%
    02:00 +8°C° 0 mm 4 mps 724 mmHg 60%
    03:00 +8°C° 0 mm 3 mps 724 mmHg 62%
    04:00 +8°C° 0 mm 3 mps 724 mmHg 63%
    05:00 +7°C° 0 mm 3 mps 724 mmHg 65%
    06:00 +9°C° 0 mm 3 mps 724 mmHg 60%
    07:00 +10°C° 0 mm 3 mps 725 mmHg 55%
    08:00 +11°C° 0 mm 3 mps 725 mmHg 50%
    09:00 +14°C° 0 mm 3 mps 725 mmHg 42%
    10:00 +17°C° 0 mm 2 mps 726 mmHg 34%
    11:00 +20°C° 0 mm 1 mps 726 mmHg 26%
    12:00 +20°C° 0 mm 2 mps 725 mmHg 24%
    13:00 +21°C° 0 mm 2 mps 725 mmHg 21%
    14:00 +24°C° 0 mm 2 mps 724 mmHg 19%
    15:00 +22°C° 0 mm 3 mps 724 mmHg 26%
    16:00 +20°C° 0 mm 3 mps 724 mmHg 32%
    17:00 +19°C° 0 mm 3 mps 724 mmHg 38%
    18:00 +17°C° 0 mm 2 mps 724 mmHg 50%
    19:00 +15°C° 0 mm 1 mps 724 mmHg 63%
    20:00 +12°C° 0 mm 0 mps 724 mmHg 75%
    21:00 +11°C° 0 mm 0 mps 724 mmHg 77%
    22:00 +12°C° 0 mm 1 mps 723 mmHg 78%
    23:00 +11°C° 0 mm 1 mps 723 mmHg 80%
    Show more